Total_Precipitation_Accumulation
0.69 0.76 1.03 1.49 1.52 2.00 2.28 2.18 2.34 2.69 2.62 2.21 1.85 2.02 2.17 2.51 2.64 2.19 1.93 1.87 1.72 1.57 1.80 2.09 2.06 2.45 2.53 2.28 2.18 2.20 2.40 2.56 2.10 1.14 1.11 1.31 1.56 1.55 1.31 1.23 1.22 1.23 1.25
1.69 1.85 1.91 2.31 2.56 2.43 2.59 2.46 2.07 2.84 2.95 2.70 2.64 2.28 2.56 2.30 2.04 1.94 1.77 1.58 1.78 1.75 1.69 1.97 1.97 2.28 2.30 2.08 1.99 1.72 1.62 1.76 1.90 1.39 1.36 1.46 1.46 1.38 1.20 1.20 1.25 1.32 1.25
2.15 2.30 2.00 2.35 2.52 2.84 2.67 2.47 2.28 2.13 2.70 2.73 2.80 2.71 2.05 2.25 1.86 1.67 1.73 1.83 1.59 1.82 1.83 1.67 1.60 1.87 2.03 1.90 1.76 1.63 1.55 1.69 1.76 1.78 1.61 1.65 1.65 1.50 1.42 1.31 1.25 1.22 1.38
1.41 1.38 1.67 1.83 1.71 1.73 1.62 1.78 1.96 1.99 1.86 1.77 1.91 1.99 1.87 1.51 1.66 1.58 1.52 1.38 1.44 1.35 1.50 1.77 1.69 1.60 1.74 1.79 1.61 1.48 1.47 1.66 1.75 1.88 1.90 1.88 1.66 1.48 1.22 1.26 1.53 1.62 1.65
1.34 1.15 1.10 1.24 1.40 1.07 1.01 1.09 1.51 1.54 1.59 1.80 1.84 1.88 2.09 1.87 1.65 1.63 1.62 1.41 1.37 1.31 1.12 1.06 1.24 1.63 1.82 1.89 1.77 1.60 1.63 1.82 1.86 1.97 2.02 1.96 1.80 1.68 1.55 1.30 1.46 1.77 2.19
1.02 0.94 0.86 0.78 0.83 0.86 0.88 0.76 0.83 1.07 1.22 1.39 1.64 2.06 2.33 2.47 2.42 1.86 1.55 1.45 1.37 1.20 1.19 1.07 1.06 1.58 1.44 1.91 2.25 2.22 1.99 2.23 2.32 2.28 2.19 2.10 1.73 1.69 1.66 1.67 1.92 2.05 2.25
0.87 0.84 0.65 0.55 0.53 0.46 0.40 0.40 0.46 0.69 0.93 1.20 1.40 1.44 1.56 1.86 2.39 2.03 1.81 1.38 1.28 1.33 1.30 1.21 1.15 1.37 1.71 1.25 2.01 2.24 2.19 2.61 2.58 2.37 2.31 2.01 1.97 1.90 1.84 1.98 1.74 1.69 1.75
0.72 0.71 0.66 0.47 0.38 0.42 0.42 0.48 0.53 0.58 0.59 0.53 0.56 0.61 0.66 0.87 1.37 1.44 1.63 1.42 1.46 1.49 1.45 1.58 1.58 1.46 1.64 1.83 1.75 1.80 1.72 1.90 2.26 2.24 2.17 2.29 2.31 2.18 1.87 1.72 1.90 2.20 2.15
0.69 0.67 0.64 0.59 0.46 0.55 0.67 0.81 0.78 0.68 0.60 0.52 0.45 0.44 0.45 0.45 0.66 0.66 0.81 0.76 1.05 1.34 1.41 1.49 1.63 1.58 2.13 1.98 1.64 1.84 1.98 2.03 2.56 2.56 2.39 2.34 2.35 2.38 2.34 2.48 2.51 2.21 2.47
0.81 0.77 0.73 0.67 0.74 0.78 0.75 0.81 0.90 0.85 0.92 1.06 1.01 0.80 0.99 0.81 1.13 0.91 0.84 0.69 0.83 0.89 0.99 1.11 1.60 1.28 1.69 1.56 1.42 1.41 1.65 1.77 1.96 2.19 2.17 1.93 1.70 1.83 2.08 1.83 1.96 2.55 2.50
1.16 1.01 1.18 1.04 0.83 0.68 0.67 0.63 0.93 1.03 1.08 1.21 1.41 1.44 1.26 1.40 1.53 1.72 1.38 0.92 0.86 0.91 0.99 1.05 1.25 1.93 1.58 1.59 1.50 1.49 2.01 1.96 2.11 1.87 2.01 2.22 2.11 1.89 1.86 1.99 1.98 2.29 2.43
1.63 1.54 1.28 1.52 1.33 1.10 0.95 0.89 0.82 1.20 1.65 1.74 1.68 1.67 1.56 1.59 2.23 2.04 1.83 2.04 2.23 1.87 1.95 1.87 2.05 2.09 1.89 2.09 2.12 2.49 2.51 2.24 1.88 1.97 1.99 2.09 2.16 2.17 2.02 1.86 1.84 1.98 2.02
1.27 1.57 1.66 1.63 1.87 1.70 1.56 1.42 1.35 1.22 1.27 1.51 1.75 1.92 1.95 1.86 2.27 2.74 2.43 2.39 2.42 2.08 2.37 2.69 2.76 2.36 2.05 2.11 2.42 2.48 2.43 2.35 2.42 2.42 2.29 2.07 1.68 1.48 1.46 1.41 1.27 1.15 1.29
0.82 0.90 1.13 1.47 1.69 1.88 2.02 2.01 1.90 1.93 1.93 2.08 2.26 2.51 2.50 2.41 2.32 2.46 2.66 2.72 2.82 2.96 3.36 3.43 3.37 3.04 2.87 2.87 2.84 2.56 2.23 2.27 2.18 1.87 1.62 1.39 1.25 1.16 1.20 1.20 1.41 1.31 1.38
0.45 0.46 0.54 0.80 1.10 1.42 1.88 2.48 2.55 2.81 2.83 2.72 2.82 2.78 2.85 2.97 3.27 3.12 2.93 2.90 3.03 3.06 2.95 2.95 2.83 2.44 2.10 1.83 1.56 1.39 1.28 1.25 1.29 1.21 1.24 1.21 1.12 1.15 1.18 1.04 1.03 0.99 1.11
0.37 0.41 0.54 0.56 0.76 1.05 1.44 2.06 2.86 3.26 3.28 3.25 3.30 3.16 3.38 3.54 3.56 3.19 3.05 3.08 3.06 2.82 2.47 2.17 2.01 1.87 1.66 1.51 1.38 1.22 1.11 1.22 1.06 1.17 1.31 1.23 1.22 1.19 1.23 1.18 1.11 1.09 1.08
0.78 0.75 0.90 1.06 1.16 1.38 1.61 1.85 2.43 2.97 3.11 3.27 3.28 3.24 3.19 3.28 3.07 2.94 2.84 2.70 2.56 2.20 2.26 2.18 2.03 1.90 1.74 1.57 1.46 1.44 1.47 1.41 1.34 1.35 1.38 1.45 1.56 1.64 1.73 1.36 1.19 1.07 1.08
1.78 1.74 1.73 1.94 2.04 2.07 2.07 2.16 2.18 2.18 2.11 2.12 2.11 1.96 1.93 1.96 1.93 1.94 2.03 2.11 2.36 2.20 2.03 1.94 1.94 1.92 1.85 1.79 1.77 1.68 1.62 1.62 1.56 1.55 1.51 1.47 1.50 1.49 1.57 1.41 1.25 1.16 1.11
1.29 1.50 1.41 1.37 1.28 1.22 1.15 1.18 1.18 1.19 1.17 1.19 1.10 1.03 1.02 1.03 1.04 1.08 1.09 1.25 1.35 1.43 1.56 1.57 1.54 1.51 1.51 1.51 1.53 1.58 1.62 1.68 1.66 1.60 1.66 1.72 1.76 1.62 1.61 1.47 1.34 1.24 1.10
0.97 1.10 1.02 0.99 1.06 0.97 0.82 0.73 0.70 0.68 0.71 0.66 0.62 0.68 0.66 0.64 0.61 0.68 0.84 0.97 1.04 1.05 1.06 1.09 1.08 1.04 1.03 1.07 1.14 1.20 1.22 1.29 1.37 1.43 1.49 1.60 1.73 1.70 1.62 1.56 1.45 1.39 1.21
0.95 0.91 0.83 0.69 0.65 0.62 0.59 0.57 0.55 0.62 0.63 0.58 0.51 0.53 0.50 0.50 0.52 0.60 0.65 0.74 0.72 0.76 0.79 0.80 0.81 0.80 0.77 0.80 0.79 0.83 0.86 0.87 0.91 1.03 1.14 1.27 1.40 1.48 1.40 1.42 1.36 1.21 1.08
0.65 0.60 0.54 0.53 0.51 0.48 0.43 0.39 0.44 0.47 0.47 0.49 0.52 0.63 0.73 0.74 0.58 0.54 0.54 0.55 0.58 0.57 0.59 0.63 0.62 0.59 0.59 0.64 0.69 0.74 0.70 0.68 0.71 0.79 0.83 0.93 1.06 1.13 1.18 1.23 1.22 1.21 1.15
0.40 0.41 0.39 0.39 0.39 0.37 0.39 0.38 0.44 0.47 0.49 0.51 0.52 0.54 0.62 0.67 0.65 0.64 0.62 0.60 0.62 0.62 0.54 0.55 0.49 0.44 0.38 0.44 0.53 0.62 0.67 0.61 0.61 0.70 0.76 0.73 0.81 0.93 0.99 1.02 1.00 1.10 1.08
0.28 0.30 0.32 0.31 0.34 0.35 0.36 0.40 0.44 0.51 0.55 0.55 0.53 0.56 0.61 0.66 0.68 0.68 0.71 0.71 0.74 0.70 0.67 0.65 0.50 0.44 0.41 0.41 0.43 0.47 0.47 0.48 0.60 0.65 0.71 0.78 0.66 0.75 0.87 0.94 0.90 0.92 0.97
0.25 0.30 0.33 0.37 0.40 0.46 0.49 0.49 0.47 0.40 0.42 0.44 0.47 0.48 0.47 0.55 0.63 0.74 0.80 0.77 0.77 0.80 0.81 0.78 0.69 0.62 0.65 0.68 0.67 0.55 0.51 0.57 0.62 0.70 0.78 0.74 0.64 0.61 0.74 0.82 0.82 0.88 0.94
0.26 0.32 0.35 0.40 0.47 0.48 0.48 0.45 0.42 0.37 0.39 0.38 0.39 0.41 0.45 0.50 0.58 0.65 0.65 0.65 0.71 0.79 0.84 0.86 0.83 0.76 0.72 0.68 0.69 0.68 0.64 0.69 0.72 0.74 0.87 0.85 0.75 0.63 0.65 0.75 0.82 0.90 0.82